Change the Weather History Date:

Saturday, March 23, 2013

  Actual Average Record
Temperature  
Mean Temperature 62 °F -  
Max Temperature 65 °F 71 °F 84 °F (2005)
Min Temperature 57 °F 54 °F 50 °F (2006)
Degree Days  
Heating Degree Days 3    
Growing Degree Days 12 (Base 50)    
Moisture  
Dew Point 56 °F    
Average Humidity 80    
Maximum Humidity 94    
Minimum Humidity 61    
Precipitation  
Precipitation 0.08 in - - ()
Sea Level Pressure  
Sea Level Pressure 30.02 in    
Wind  
Wind Speed 7 mph ()    
Max Wind Speed 23 mph    
Max Gust Speed -    
Visibility 7.1 miles    
Events Rain    
Averages and records for this station are not official NWS values.
T = Trace of Precipitation, MM = Missing Value Source: Averaged Metar Reports

Daily Weather History Graph

Daily Weather History Graph

Search for Another Location

Airport or City:

Trip Planner

Search our weather history database for the weather conditions in past years. The results will help you decide how hot, cold, wet, or windy it might be!

Date:

Astronomy

Mar. 23, 2013 Rise Set
Actual Time 6:35 AM SAST 6:37 PM SAST
Civil Twilight 6:11 AM SAST 7:02 PM SAST
Nautical Twilight 5:41 AM SAST 7:31 PM SAST
Astronomical Twilight 5:12 AM SAST 8:00 PM SAST
Moon 4:04 PM SAST (3/23) 2:31 AM SAST (3/23)
Length of Visible Light 12h 51m
Length of Day
12h 01m
Waxing Gibbous, 83% of the Moon is Illuminated
Mar 23
Waxing Gibbous
Mar 27
Full
Apr 3
Last Quarter
Apr 10
New
Apr 18
First Quarter

Hourly Weather History & Observations

Time (SAST) Temp. Dew Point Humidity Pressure Visibility Wind Dir Wind Speed Gust Speed Precip Events Conditions
12:00 AM 62.6 °F 59.0 °F 88% 29.86 in 6.2 mi NW 4.6 mph - N/A   Mostly Cloudy
1:00 AM 64.4 °F 60.8 °F 88% 29.86 in 4.3 mi WSW 5.8 mph - N/A   Drizzle
2:00 AM 64 °F 62 °F 89% 29.87 in 5 mi WSW 4.6 mph - -  
2:00 AM 64.4 °F 60.8 °F 88% 29.86 in 4.3 mi WSW 4.6 mph - N/A   Overcast
3:00 AM 64.4 °F 59.0 °F 83% 29.86 in 6.2 mi WSW 4.6 mph - N/A   Overcast
4:00 AM 64.4 °F 59.0 °F 83% 29.89 in 6.2 mi West 6.9 mph - N/A   Mostly Cloudy
5:00 AM 64 °F 58 °F 77% 29.92 in 12 mi WNW 5.8 mph - -   Partly Cloudy
5:00 AM 64.4 °F 59.0 °F 83% 29.92 in 6.2 mi WNW 5.8 mph - N/A   Mostly Cloudy
6:00 AM 60.8 °F 55.4 °F 82% 29.95 in 6.2 mi NNW 6.9 mph - N/A   Partly Cloudy
7:00 AM 64.4 °F 53.6 °F 68% 29.98 in 6.2 mi West 16.1 mph - N/A   Mostly Cloudy
8:00 AM 65 °F 55 °F 61% 30.03 in 19 mi West 23.0 mph - -   Mostly Cloudy
8:00 AM 64.4 °F 55.4 °F 73% 30.04 in 6.2 mi WSW 23.0 mph - N/A   Mostly Cloudy
9:00 AM 59.0 °F 57.2 °F 94% 30.06 in 1.5 mi WSW 16.1 mph - N/A Rain Light Rain
10:00 AM 60.8 °F 57.2 °F 88% 30.09 in 6.2 mi WNW 11.5 mph - N/A   Mostly Cloudy
11:00 AM 62.6 °F 57.2 °F 82% 30.09 in 6.2 mi West 12.7 mph - N/A   Mostly Cloudy
12:00 PM 62.6 °F 57.2 °F 82% 30.12 in 6.2 mi WSW 12.7 mph - N/A   Mostly Cloudy
1:00 PM 62.6 °F 55.4 °F 77% 30.09 in 6.2 mi WNW 8.1 mph - N/A   Mostly Cloudy
2:00 PM 63 °F 54 °F 63% 30.10 in 12 mi NW 2.3 mph - -   Partly Cloudy
2:00 PM 62.6 °F 53.6 °F 72% 30.09 in 6.2 mi NW 5.8 mph - N/A   Mostly Cloudy
3:00 PM 60.8 °F 53.6 °F 77% 30.09 in 6.2 mi SSE 5.8 mph - N/A   Mostly Cloudy
4:00 PM 60.8 °F 55.4 °F 82% 30.06 in 6.2 mi NNW 6.9 mph - N/A   Mostly Cloudy
5:00 PM 60 °F 54 °F 74% 30.09 in 12 mi North 9.2 mph - -   Mostly Cloudy
5:00 PM 60.8 °F 53.6 °F 77% 30.06 in 6.2 mi North 6.9 mph - N/A   Mostly Cloudy
6:00 PM 60.8 °F 53.6 °F 77% 30.06 in 6.2 mi North 4.6 mph - N/A   Mostly Cloudy
7:00 PM 60.8 °F 53.6 °F 77% 30.06 in 6.2 mi Variable 1.2 mph - N/A   Mostly Cloudy
8:00 PM 61 °F 54 °F 71% 30.11 in 12 mi East 2.3 mph - -   Mostly Cloudy
8:00 PM 60.8 °F 53.6 °F 77% 30.09 in 6.2 mi Variable 2.3 mph - N/A   Mostly Cloudy
9:00 PM 60.8 °F 53.6 °F 77% 30.09 in 6.2 mi Calm Calm - N/A   Overcast
10:00 PM 59.0 °F 55.4 °F 88% 30.09 in 6.2 mi North 1.2 mph - N/A   Mostly Cloudy
11:00 PM 57.2 °F 53.6 °F 88% 30.06 in - WNW 2.3 mph - N/A   Clear